User: anonymous
Location: Caltech
(34.1382°N, 118.1253°W)
Time: 05:06:06
(UTC-07:00)
Language:

Cosmos 1408 Rocket - Orbit

View from above orbital plane
View from above orbital plane
View from above satellite
View from above satellite

Ground track
Ground track

The orbit data is extracted from the following two-line orbital elements,

1 13553U 82092B   14232.29587509  .00000175  00000-0  18307-4 0  9823
2 13553 082.5685 115.2159 0021243 209.9534 284.3475 14.83567988724006
Epoch (UTC): 20 August 2014 07:06:03
Eccentricity: 0.0021243
inclination: 82.5685°
perigee height: 603 km
apogee height: 633 km
right ascension of ascending node: 115.2159°
argument of perigee: 209.9534°
revolutions per day: 14.83567988
mean anomaly at epoch: 284.3475°
orbit number at epoch: 72400

The dashed part of the orbit path shows where the satellite is in the earth's shadow,  

DLR